FW5945 Weather Reports


time (UTC)temp
C
wind
direction
speed
KPH
gust
KPH
rain 1hr
cm
rain 24hr
cm
rain mn
cm
humidity
%
barometer
mb
20260505183702 27 215 16.1 20.9 0.00 0.00 0.00 42 1017.3
20260505182701 27 200 8.0 20.9 0.00 0.00 0.00 41 1017.3
20260505181700 27 149 11.3 22.5 0.00 0.00 0.00 42 1017.6
20260505180659 28 198 6.4 22.5 0.00 0.00 0.00 39 1017.3
20260505175626 28 132 3.2 20.9 0.00 0.00 0.00 41 1017.3
20260505174625 27 139 6.4 20.9 0.00 0.00 0.00 41 1017.3
20260505173623 26 221 8.0 16.1 0.00 0.00 0.00 41 1017.3
20260505172621 26 192 6.4 19.3 0.00 0.00 0.00 43 1017.3
20260505171621 26 182 6.4 20.9 0.00 0.00 0.00 46 1017.6
20260505170619 27 210 12.9 22.5 0.00 0.00 0.00 43 1017.6
20260505165618 27 139 4.8 17.7 0.00 0.00 0.00 43 1017.6
20260505164617 26 131 8.0 17.7 0.00 0.00 0.00 44 1017.9
20260505163544 25 198 12.9 24.1 0.00 0.00 0.00 47 1017.9
20260505162542 25 198 16.1 24.1 0.00 0.00 0.00 46 1018.3
20260505161541 25 213 16.1 22.5 0.00 0.00 0.00 46 1018.3
20260505160508 25 216 12.9 22.5 0.00 0.00 0.00 48 1018.3
20260505152358 23 221 8.0 20.9 0.00 0.00 0.00 54 1018.3
20260505151357 23 179 9.7 20.9 0.00 0.00 0.00 53 1018.3
20260505150356 23 231 9.7 17.7 0.00 0.00 0.00 57 1018.3
20260505140347 21 213 14.5 22.5 0.00 0.00 0.00 66 1018.3
20260505130309 17 199 6.4 9.7 0.00 0.00 0.00 79 1018.3
20260505124306 16 204 4.8 8.0 0.00 0.00 0.00 80 1018.3
20260505123304 15 160 3.2 6.4 0.00 0.00 0.00 82 1018.3
20260505122305 15 157 1.6 6.4 0.00 0.00 0.00 84 1018.3
20260505121302 13 151 1.6 6.4 0.00 0.00 0.00 87 1018.3
20260505120300 13 171 1.6 6.4 0.00 0.00 0.00 87 1018.3
20260505115258 12 159 1.6 3.2 0.00 0.00 0.00 88 1018.3
20260505114257 12 159 0.0 1.6 0.00 0.00 0.00 88 1017.9
20260505113256 11 155 0.0 1.6 0.00 0.00 0.00 88 1017.9
20260505112254 11 151 0.0 1.6 0.00 0.00 0.00 88 1017.9
20260505111253 11 153 1.6 1.6 0.00 0.00 0.00 88 1017.9
20260505110252 10 164 0.0 3.2 0.00 0.00 0.00 87 1017.9
20260505101245 11 154 0.0 3.2 0.00 0.00 0.00 86 1017.3
20260505100244 11 153 0.0 1.6 0.00 0.00 0.00 86 1017.3
20260505095242 11 155 1.6 3.2 0.00 0.00 0.00 86 1017.3
20260505094241 11 156 1.6 3.2 0.00 0.00 0.00 86 1017.3
20260505093239 11 164 0.0 1.6 0.00 0.00 0.00 85 1017.3
20260505092238 11 173 0.0 3.2 0.00 0.00 0.00 84 1017.3
20260505091237 11 186 1.6 3.2 0.00 0.00 0.00 84 1016.9
20260505090235 11 175 1.6 3.2 0.00 0.00 0.00 84 1016.6
20260505085234 12 171 0.0 3.2 0.00 0.00 0.00 84 1016.6
20260505084234 12 174 0.0 3.2 0.00 0.00 0.00 84 1016.6
20260505083232 12 183 1.6 4.8 0.00 0.00 0.00 83 1016.6
20260505082231 12 162 0.0 1.6 0.00 0.00 0.00 83 1016.6
20260505081229 12 164 0.0 1.6 0.00 0.00 0.00 83 1016.6
20260505080227 12 167 0.0 1.6 0.00 0.00 0.00 82 1016.6
20260505075226 12 180 0.0 1.6 0.00 0.00 0.00 82 1016.6
20260505074225 12 171 0.0 3.2 0.00 0.00 0.00 82 1016.6
20260505073152 12 187 1.6 3.2 0.00 0.00 0.00 81 1016.6
20260505072151 12 169 1.6 1.6 0.00 0.00 0.00 81 1016.3
20260505071150 13 173 1.6 3.2 0.00 0.00 0.00 81 1016.6
20260505070149 13 182 1.6 3.2 0.00 0.00 0.00 81 1016.6
20260505065148 13 175 1.6 4.8 0.00 0.00 0.00 80 1016.6
20260505064147 13 159 0.0 4.8 0.00 0.00 0.00 80 1016.6
20260505063145 13 153 3.2 4.8 0.00 0.00 0.00 80 1016.6
20260505062143 13 148 1.6 3.2 0.00 0.00 0.00 79 1016.6
20260505061142 13 151 1.6 4.8 0.00 0.00 0.00 78 1016.6
20260505060140 13 153 1.6 4.8 0.00 0.00 0.00 78 1016.6
20260505055139 13 146 1.6 4.8 0.00 0.00 0.00 77 1016.9
20260505054139 14 141 1.6 4.8 0.00 0.00 0.00 76 1016.9
20260505053137 14 157 1.6 4.8 0.00 0.00 0.00 75 1016.9
20260505052135 15 149 1.6 4.8 0.00 0.00 0.00 74 1016.9
20260505051134 15 138 1.6 4.8 0.00 0.00 0.00 74 1017.3
20260505050133 15 154 1.6 4.8 0.00 0.00 0.00 72 1017.3
20260505041054 16 173 3.2 8.0 0.00 0.00 0.00 69 1017.6
20260505040053 16 161 3.2 8.0 0.00 0.00 0.00 68 1017.3
20260505035051 16 171 3.2 9.7 0.00 0.00 0.00 67 1017.6
20260505034050 17 169 3.2 8.0 0.00 0.00 0.00 66 1017.6
20260505033049 17 177 3.2 8.0 0.00 0.00 0.00 65 1017.6
20260505032048 17 174 4.8 9.7 0.00 0.00 0.00 64 1017.6
20260505030945 17 169 4.8 9.7 0.00 0.00 0.00 64 1017.6
20260505025943 17 173 6.4 11.3 0.00 0.00 0.00 63 1017.9
20260505024941 17 168 6.4 11.3 0.00 0.00 0.00 62 1017.9
20260505023940 18 158 4.8 11.3 0.00 0.00 0.00 61 1017.6
20260505022938 18 174 6.4 14.5 0.00 0.00 0.00 60 1017.6
20260505021937 18 159 6.4 14.5 0.00 0.00 0.00 60 1017.6
20260505020905 18 172 8.0 14.5 0.00 0.00 0.00 59 1017.6
20260505015903 19 172 6.4 14.5 0.00 0.00 0.00 58 1017.3
20260505014901 19 172 6.4 16.1 0.00 0.00 0.00 58 1017.3
20260505013901 19 170 9.7 17.7 0.00 0.00 0.00 57 1016.9
20260505012859 20 182 8.0 17.7 0.00 0.00 0.00 57 1017.3
20260505011858 20 169 8.0 16.1 0.00 0.00 0.00 57 1016.9
20260505010752 20 173 8.0 19.3 0.00 0.00 0.00 56 1016.9
20260505005751 20 172 9.7 22.5 0.00 0.00 0.00 56 1016.9
20260505004718 20 170 8.0 17.7 0.00 0.00 0.00 56 1016.6
20260505003717 21 177 9.7 17.7 0.00 0.00 0.00 55 1016.6
20260505002645 21 185 6.4 17.7 0.00 0.00 0.00 55 1016.3
20260505001644 21 166 6.4 17.7 0.00 0.00 0.00 54 1016.3
20260505000642 22 168 8.0 19.3 0.00 0.00 0.00 52 1016.3
20260504235641 22 169 9.7 19.3 0.00 0.00 0.00 51 1016.3
20260504234639 23 167 6.4 16.1 0.00 0.00 0.00 50 1015.9
20260504233639 23 161 6.4 22.5 0.00 0.00 0.00 49 1015.9
20260504232638 23 173 8.0 24.1 0.00 0.00 0.00 46 1015.9
20260504231605 24 181 9.7 17.7 0.00 0.00 0.00 44 1015.9
20260504230603 25 150 6.4 17.7 0.00 0.00 0.00 40 1015.6
20260504225601 25 169 6.4 16.1 0.00 0.00 0.00 38 1015.6
20260504224529 26 173 9.7 17.7 0.00 0.00 0.00 36 1015.9
20260504223456 26 163 6.4 22.5 0.00 0.00 0.00 35 1015.9
20260504222454 26 197 9.7 22.5 0.00 0.00 0.00 34 1015.6
20260504221351 26 191 9.7 22.5 0.00 0.00 0.00 34 1015.6
20260504220350 26 183 8.0 17.7 0.00 0.00 0.00 33 1015.6
20260504215349 26 180 9.7 19.3 0.00 0.00 0.00 32 1015.6
20260504214348 26 174 8.0 24.1 0.00 0.00 0.00 31 1015.6
20260504213347 26 183 6.4 22.5 0.00 0.00 0.00 34 1015.6
20260504212346 26 201 12.9 24.1 0.00 0.00 0.00 33 1015.6
20260504211345 26 223 12.9 25.7 0.00 0.00 0.00 32 1015.6
20260504210345 26 211 14.5 24.1 0.00 0.00 0.00 32 1015.6
20260504205343 26 179 9.7 24.1 0.00 0.00 0.00 33 1015.6
20260504204341 26 153 11.3 22.5 0.00 0.00 0.00 35 1015.6
20260504203339 26 179 9.7 22.5 0.00 0.00 0.00 34 1015.6
20260504202338 26 162 8.0 19.3 0.00 0.00 0.00 33 1015.9
20260504201337 27 222 12.9 19.3 0.00 0.00 0.00 31 1015.9
20260504200335 27 144 4.8 22.5 0.00 0.00 0.00 33 1015.9
20260504195334 26 117 6.4 14.5 0.00 0.00 0.00 32 1015.9
20260504194333 26 166 6.4 20.9 0.00 0.00 0.00 33 1016.3
20260504193332 26 216 16.1 22.5 0.00 0.00 0.00 32 1016.6
20260504192331 26 212 6.4 19.3 0.00 0.00 0.00 30 1016.6
20260504191330 27 207 6.4 19.3 0.00 0.00 0.00 31 1016.6
20260504190330 26 177 3.2 24.1 0.00 0.00 0.00 33 1016.9
20260504185258 27 199 9.7 19.3 0.00 0.00 0.00 32 1016.9